Miscellaneous Local Product
Issued by NWS Hastings, NE

Home | Current Version | Previous Version | Graphics & Text | Print | Product List | Glossary On
Versions: 1 2 3 4 5 6 7 8 9 10 11 12 13 14 15 16 17 18 19 20 21 22 23 24 25 26 27 28 29 30 31 32 33 34 35 36 37 38 39 40 41 42 43 44 45 46 47 48 49 50
000
AXUS43 KGID 062302
MISGRI

GID CWA HOURLY WEATHER ROUNDUP
NATIONAL WEATHER SERVICE HASTINGS NE
600 PM CDT MON JUL 06 2015

NOTE: "FAIR" INDICATES FEW OR NO CLOUDS BELOW 12,000 FEET WITH NO
SIGNIFICANT WEATHER AND/OR OBSTRUCTIONS TO VISIBILITY.

...SOUTH CENTRAL NEBRASKA...

CITY           SKY/WX    TMP DP  RH WIND       PRES   REMARKS
GRAND ISLAND   PTSUNNY   75  57  53 N23       30.03R HAZE
HASTINGS       MOSUNNY   75  57  53 N22G32    30.01R HAZE
KEARNEY        PTSUNNY   75  55  50 N24G30    30.04R
ORD            MOSUNNY   76  55  48 N21G29    30.05R HAZE
YORK           CLOUDY    73  64  73 N25G35    29.99R
AURORA         MOSUNNY   75  61  60 N16G24    30.01S HAZE
LEXINGTON      PTSUNNY   76  55  48 N15G22    30.07R HAZE
HOLDREGE       MOSUNNY   75  52  44 N20G28    30.04R HAZE
HEBRON         CLOUDY    73  65  75 NE10      29.97R

...NEBRASKA PANHANDLE...

CITY           SKY/WX    TMP DP  RH WIND       PRES   REMARKS
CHADRON        SUNNY     73  52  47 NE8       30.20F
ALLIANCE       CLOUDY    67  54  63 N9        30.21F HAZE
SCOTTSBLUFF    CLOUDY    68  53  58 NE5       30.22F HAZE
SIDNEY         CLOUDY    68  52  56 NE14      30.23F HAZE

...WESTERN AND NORTH CENTRAL NEBRASKA...

CITY           SKY/WX    TMP DP  RH WIND       PRES   REMARKS
VALENTINE      CLOUDY    72  52  49 N10       30.15F
AINSWORTH      PTSUNNY   71  54  55 N13G18    30.14F
ONEILL         MOSUNNY   75  54  48 N16G25    30.08F
BROKEN BOW     MOSUNNY   76  53  44 N17G25    30.08S HAZE
IMPERIAL       PTSUNNY   75  52  44 N15G23    30.14F
NORTH PLATTE   PTSUNNY   76  52  43 N16G23    30.11F
MCCOOK         MOSUNNY   77  54  44 N21       30.07F HAZE

...EASTERN NEBRASKA...

CITY           SKY/WX    TMP DP  RH WIND       PRES   REMARKS
NORFOLK        CLOUDY    76  60  57 N18G26    30.01R HAZE
SO SIOUX CITY  CLOUDY    75  58  55 N20       29.99R HAZE
TEKAMAH        CLOUDY    76  63  64 N18G26    29.97R HAZE
ALBION           N/A     74  55  51 N16G24    30.03R HAZE
OMAHA EPPLEY   CLOUDY    74  66  76 N16G28    29.93R HAZE
MILLARD        CLOUDY    75  66  73 N12G18    29.94R
LINCOLN        CLOUDY    73  66  78 N21       29.96R
NEBRASKA CITY  DRIZZLE   71  70  95 N21G28    29.92R
BEATRICE       CLOUDY    71  68  91 N14G25    29.95R
FALLS CITY     LGT RAIN  73  71  93 N5        29.89R

...NORTHERN KANSAS...

CITY           SKY/WX    TMP DP  RH WIND       PRES   REMARKS
GOODLAND       CLOUDY    72  55  55 N21G26    30.12F
HILL CITY      PTSUNNY   80  59  48 N22G31    30.01F HAZE
NORTON         CLEAR     75  46  35 N22       30.03S HAZE
PHILLIPSBURG   PTSUNNY   82  55  39 N17G29    30.00R HAZE
SMITH CENTER   MOSUNNY   75  59  57 N18G31    29.99R
HAYS           CLOUDY    75  61  60 N28       29.96F
RUSSELL        CLOUDY    74  65  73 N21       29.93F
CONCORDIA      CLOUDY    72  66  81 N21G28    29.93F
SALINA         CLOUDY    75  68  78 N21       29.90S
TOPEKA         RAIN      72  70  93 NE7       29.89R FOG



USA.gov is the U.S. government's official web portal to all federal, state and local government web resources and services.